Weather observations for the past three days for
Pella, Pella Municipal Airport
Metric (Imperial)
Date Time (cdt) Wind (kph) Vis. (km) Weather Sky Cond. Temperature (ºC) Relative Humidity Wind Chill (°C) Heat Index (°C) Pressure Precipitation (cm)
Air Dwpt 6 hour altimeter (cm) sea level (mb) 1 hr 3 hr 6 hr
Max. Min.
06 10:35 E 13 16.09 Overcast OVC011 25.4 21.9 81% 27 76.43 0.0
06 10:15 E 13 16.09 Overcast OVC009 23.6 21.3 87% 76.4 0.0
06 09:55 SE 13 16.09 Overcast OVC009 23.4 21.3 88% 76.4 0.0
06 09:35 E 13 16.09 Overcast OVC007 23.2 21.4 90% 76.4 0.0
06 09:15 E 17 16.09 Overcast OVC007 23.1 21.4 90% 76.4 0.0
06 08:55 E 17 11.27 Overcast OVC005 23.4 21.6 90% 76.4 0.0
06 08:35 E 13 11.27 Fog/Mist OVC005 23.1 21.7 92% 76.4 0.0
06 08:15 E 17 8.05 Fog/Mist OVC005 22.5 21.5 94% 76.4 0.0
06 07:55 E 7 11.27 Fog/Mist BKN005 22.1 21.3 95% 76.35 0.0
06 07:35 E 9 11.27 Fog/Mist SCT005 21.9 21.2 96% 76.35 0.0
06 07:15 E 7 8.05 Fog/Mist CLR 21.6 21 96% 76.33 0.0
06 06:55 E 7 8.05 Fog/Mist SCT020 21.5 20.9 23.5 21.5 96% 76.3 0.0
06 06:35 E 7 11.27 Fog/Mist BKN020 21.6 20.9 96% 76.3 0.0
06 06:15 E 7 11.27 Overcast OVC020 21.8 21 95% 76.3 0.0
06 05:55 E 9 16.09 Overcast OVC020 22.1 21.1 94% 76.3 0.0
06 05:35 E 7 16.09 Overcast OVC020 22.1 21 94% 76.33 0.0
06 05:15 E 7 16.09 Overcast OVC020 22.1 21 94% 76.3 0.0
06 04:55 E 11 16.09 Overcast OVC020 22.3 21 92% 76.3 0.0
06 04:35 E 7 16.09 Partly Cloudy SCT020 22.2 21 93% 76.28 0.0
06 04:15 E 7 16.09 Partly Cloudy SCT020 22.3 21.1 93% 76.28 0.0
06 03:55 E 7 16.09 Mostly Cloudy BKN020 22.3 21.1 93% 76.28 0.0
06 03:35 E 11 16.09 Overcast OVC020 22.4 21.2 93% 76.25 0.0
06 03:15 E 9 16.09 Mostly Cloudy BKN020 22.3 21.3 94% 76.25 0.0
06 02:55 E 7 16.09 Fair CLR 22.2 21.2 94% 76.25 0.0
06 02:35 E 11 16.09 Fair CLR 22.5 21.3 93% 76.25 0.0
06 02:15 E 9 16.09 Fair CLR 22.7 21.4 92% 76.25 0.0
06 01:55 E 15 16.09 Fair CLR 22.8 21.4 92% 76.25 0.0
06 01:35 E 11 16.09 Fair CLR 23.1 21.4 90% 76.28 0.0
06 01:15 E 13 16.09 Fair CLR 23.2 21.5 90% 76.28 0.0
06 00:55 E 11 16.09 Fair CLR 23.5 21.9 30.9 23.5 91% 76.28 0.0
06 00:35 E 9 16.09 Fair CLR 23.9 22.2 90% 23 76.28 0.0
06 00:15 E 11 16.09 Fair CLR 24.2 22.4 90% 24 76.25 0.0
05 23:55 E 9 16.09 Fair CLR 24.7 22.6 88% 25 76.25 0.0
05 23:35 E 13 16.09 Fair CLR 25.1 22.8 87% 26 76.23 0.0
05 23:15 E 11 16.09 Fair CLR 25.4 23.4 89% 27 76.23 0.0
05 22:55 E 13 16.09 Fair CLR 25.9 23.9 89% 28 76.23 0.0
05 22:35 E 13 16.09 Fair CLR 26.4 24.6 90% 29 76.23 0.0
05 22:15 E 13 16.09 Fair CLR 27 24.7 87% 30 76.2 0.0
05 21:55 E 11 16.09 Fair CLR 27.4 24.6 85% 31 76.17 0.0
05 21:35 E 6 16.09 Fair CLR 27.8 24.5 82% 32 76.17 0.0
05 21:15 Calm 16.09 Fair CLR 28.1 24.4 80% 32 76.12 0.0
05 20:35 Calm 16.09 Fair CLR 28.5 24.5 79% 33 76.1 0.0
05 20:15 Calm 16.09 Fair CLR 28.7 24.7 79% 34 76.07 0.0
05 19:55 E 6 16.09 Fair CLR 29.4 24.8 76% 35 76.07 0.0
05 19:35 E 9 16.09 Fair CLR 29.7 24.7 75% 35 76.05 0.0
05 19:15 E 7 16.09 Fair CLR 30.4 24.7 72% 36 76.07 0.0
05 18:55 E 7 16.09 Fair CLR 31 24.6 34.6 30.9 69% 37 76.07 0.0
05 18:35 E 9 16.09 Fair CLR 31.4 24.8 68% 38 76.07 0.0
05 18:15 Calm 16.09 Fair CLR 31.8 24.7 66% 38 76.07 0.0
05 17:55 Calm 16.09 Partly Cloudy SCT034 31.6 24.9 68% 38 76.07 0.0
05 17:35 NE 6 16.09 Partly Cloudy SCT034 32.1 24.9 66% 39 76.07 0.0
05 17:15 Calm 16.09 Partly Cloudy SCT034 SCT041 32.2 24.6 64% 39 76.05 0.0
05 16:55 E 6 16.09 Partly Cloudy SCT034 SCT043 32.7 25.1 64% 40 76.02 0.0
05 16:35 Calm 16.09 Partly Cloudy SCT034 32.4 24.9 65% 40 76.05 0.0
05 16:15 Calm 16.09 Fair CLR 32.9 24.4 61% 40 76.05 0.0
05 15:55 E 7 16.09 Fair CLR 32.9 24.6 62% 40 76.05 0.0
05 15:35 Calm 16.09 Partly Cloudy SCT034 33.5 25.1 61% 41 76.05 0.0
05 15:15 Calm 16.09 Partly Cloudy SCT036 SCT042 SCT065 34 25.1 60% 42 76.07 0.0
05 14:55 Calm 16.09 Mostly Cloudy BKN037 BKN050 BKN075 33 25.1 63% 41 76.1 0.0
05 12:55 Calm 16.09 Partly Cloudy SCT055 SCT070 SCT080 33 24.6 33.4 22.9 61% 40 76.2 0.0
05 12:35 Calm 16.09 Partly Cloudy SCT060 32.3 24.4 63% 39 76.17 0.0
05 12:15 Calm 16.09 Partly Cloudy SCT060 32.1 24.4 64% 39 76.17 0.0
05 11:55 Calm 16.09 Fair CLR 32.6 24.4 62% 39 76.17 0.0
05 11:35 Calm 16.09 Partly Cloudy SCT065 31.3 24.4 67% 37 76.2 0.0
05 11:15 Calm 16.09 Overcast OVC060 29.9 24.4 72% 35 76.2 0.0
05 10:55 Calm 16.09 Overcast OVC060 29.6 23.9 71% 34 76.2 0.0
05 10:35 Calm 16.09 Mostly Cloudy BKN060 29.5 24 72% 34 76.17 0.0
05 10:15 Calm 16.09 Partly Cloudy SCT060 29 24 74% 34 76.17 0.0
05 09:55 Calm 16.09 Fair CLR 28.5 23.5 74% 32 76.17 0.0
05 09:35 Calm 16.09 Fair CLR 28.1 23.6 77% 32 76.12 0.0
05 09:15 Calm 16.09 Fair CLR 27.9 23.4 77% 31 76.12 0.0
05 08:55 Calm 16.09 Fair CLR 27.3 23.5 80% 30 76.12 0.0
05 08:35 Calm 16.09 Fair CLR 26.5 23.6 84% 29 76.12 0.0
05 08:15 Calm 16.09 Fair CLR 25.2 23.3 89% 26 76.1 0.0
05 07:55 Calm 16.09 Fair CLR 23.8 23 95% 76.1 0.0
05 07:35 Calm 16.09 Fair CLR 23.5 22.8 96% 76.1 0.0
05 07:15 Calm 16.09 Fair CLR 23.1 22.5 96% 76.07 0.0
05 06:55 Calm 16.09 Fair CLR 22.9 22.4 25.9 22.4 97% 76.07 0.0
05 06:35 Calm 16.09 Partly Cloudy SCT060 22.9 22.3 96% 76.05 0.0
05 06:15 Calm 6.44 Fog/Mist BKN060 22.9 22.2 96% 76.05 0.0
05 05:55 Calm 16.09 Mostly Cloudy BKN070 23.2 22.6 96% 76.02 0.0
05 05:35 Calm 16.09 Mostly Cloudy BKN060 23.1 22.5 96% 76.02 0.0
05 05:15 Calm 16.09 Mostly Cloudy BKN060 23.1 22.5 96% 76.02 0.0
05 04:55 Calm 16.09 Fair CLR 23.3 22.8 97% 76.02 0.0
05 04:35 Calm 16.09 Fair CLR 23.1 22.4 96% 76.02 0.0
05 04:15 Calm 16.09 Fair CLR 23.6 22.9 96% 76.02 0.0
05 03:55 Calm 16.09 Fair CLR 23.7 22.8 95% 76.02 0.0
05 03:35 Calm 16.09 Fair CLR 24 22.9 94% 23 76.02 0.0
05 03:15 Calm 16.09 Fair CLR 24 22.8 93% 23 76.02 0.0
05 02:55 Calm 16.09 Fair CLR 24.1 22.8 92% 24 76.05 0.0
05 02:35 Calm 16.09 Fair CLR 24.9 23.1 90% 25 76.02 0.0
05 02:15 Calm 16.09 Fair CLR 25 23.2 90% 26 76.02 0.0
05 01:55 Calm 16.09 Fair CLR 25.2 23.4 90% 26 76.05 0.0
05 01:35 Calm 16.09 Fair CLR 25.1 23.4 90% 26 76.05 0.0
05 01:15 Calm 16.09 Fair CLR 25.8 23.6 88% 27 76.02 0.0
05 00:55 Calm 11.27 Fair CLR 25.8 23.7 31.4 25.7 88% 27 76.05 0.0
05 00:35 Calm 16.09 Fair CLR 26.4 23.7 85% 29 76.02 0.0
05 00:15 Calm 8.05 Fog/Mist CLR 26.1 23.7 87% 28 76.02 0.0
04 23:55 Calm 16.09 Fair CLR 26 23.8 88% 28 76.02 0.0
04 23:35 Calm 11.27 Fair CLR 26.6 23.9 85% 29 76.02 0.0
04 23:15 Calm 16.09 Fair CLR 26.8 24 85% 30 76.02 0.0
04 22:55 Calm 16.09 Fair CLR 26.2 23.8 87% 28 76.02 0.0
04 22:35 Calm 16.09 Fair CLR 26.9 24 84% 30 76 0.0
04 22:15 Calm 16.09 Fair CLR 26.7 24 85% 29 76 0.0
04 21:55 Calm 16.09 Fair CLR 26.9 24.1 85% 30 76 0.0
04 21:35 Calm 16.09 Fair CLR 26.9 24.1 85% 30 76 0.0
04 21:15 Calm 16.09 Fair CLR 27.6 24.3 82% 31 76 0.0
04 20:55 Calm 11.27 Fair with Haze CLR 27.9 24.3 81% 32 76 0.0
04 20:35 Calm 16.09 Fair CLR 28.5 24.3 78% 33 75.97 0.0
04 20:15 Calm 16.09 Fair CLR 27.9 24.4 81% 32 75.97 0.0
04 19:55 Calm 16.09 Fair CLR 28 24.7 82% 32 75.97 0.0
04 19:35 Calm 16.09 Partly Cloudy SCT110 28.7 25.2 81% 34 75.95 0.0
04 19:15 Calm 16.09 Mostly Cloudy BKN110 30.5 25.1 73% 37 75.95 0.0
04 18:55 Calm 16.09 Partly Cloudy SCT110 31.5 24.2 34.7 31.3 65% 37 75.95 0.0
04 18:35 Calm 16.09 Partly Cloudy SCT110 31.8 24.3 65% 38 75.92 0.0
04 18:15 Calm 16.09 Partly Cloudy SCT120 32.1 23.8 62% 38 75.95 0.0
04 17:55 Calm 16.09 Fair CLR 32.6 24 61% 39 75.95 0.0
04 17:35 Calm 16.09 Fair CLR 31.9 23.3 60% 37 75.92 0.0
04 17:15 SW 11 16.09 Fair CLR 33.1 23.7 58% 39 75.92 0.0
04 16:55 Calm 16.09 Fair CLR 33.7 23 54% 39 75.92 0.0
04 16:35 S 17 16.09 Fair CLR 32.8 22.7 55% 37 75.92 0.0
04 16:15 SW 13 16.09 Fair CLR 33.9 22.9 53% 39 75.92 0.0
04 15:55 S 19 16.09 Fair CLR 34.4 23.1 52% 40 75.95 0.0
04 15:35 S 19 16.09 Fair CLR 34.3 22.9 51% 40 75.95 0.0
04 15:15 S 19 16.09 Fair CLR 33.4 22.4 52% 38 75.95 0.0
04 14:55 S 20 16.09 Fair CLR 34.5 23.5 53% 41 75.95 0.0
04 14:35 S 19 16.09 Fair CLR 33.9 22.9 53% 39 75.95 0.0
04 14:15 S 15 G 30 16.09 Fair CLR 33.6 22.9 53% 39 75.97 0.0
04 13:55 S 17 16.09 Fair CLR 33.7 23.2 54% 39 76 0.0
04 13:35 S 19 16.09 Fair CLR 33.1 23.4 57% 39 76 0.0
04 13:15 S 15 G 28 16.09 Fair CLR 33 23.4 57% 38 76 0.0
04 12:55 SW 19 16.09 Fair CLR 32.6 22.6 33 22.6 56% 37 76.02 0.0
04 12:35 S 19 16.09 Fair CLR 32.8 23.3 57% 38 76.02 0.0
04 12:15 SW 20 16.09 Fair CLR 32.3 23 58% 37 76.05 0.0
04 11:55 SW 15 16.09 Fair CLR 32 22.9 59% 37 76.05 0.0
04 11:35 SW 15 16.09 Partly Cloudy SCT120 30.8 22.5 61% 35 76.05 0.0
04 11:15 SW 17 G 26 16.09 Partly Cloudy SCT120 31.5 22.1 57% 35 76.05 0.0
04 10:55 SW 22 G 31 16.09 Partly Cloudy SCT120 31.6 22.4 58% 36 76.05 0.0
04 10:35 SW 19 16.09 Partly Cloudy SCT120 31 22.1 59% 35 76.05 0.0
04 10:15 SW 15 16.09 Partly Cloudy SCT120 31 22.9 62% 35 76.05 0.0
04 09:55 S 9 16.09 Fair CLR 29.6 22.6 66% 33 76.02 0.0
04 09:35 Calm 16.09 Fair CLR 28.8 22.5 69% 32 76.02 0.0
04 09:15 Calm 16.09 Fair CLR 27.9 22.4 72% 31 76.05 0.0
04 08:55 Calm 16.09 Fair CLR 27.1 22 74% 29 76.05 0.0
04 08:35 S 9 16.09 Fair CLR 26.5 21.6 75% 28 76.02 0.0
04 08:15 S 11 16.09 Fair CLR 25.7 21.5 78% 27 76.02 0.0
04 07:55 S 9 16.09 Fair CLR 24.6 21.4 82% 25 76.02 0.0
04 07:35 S 11 16.09 Fair CLR 24.2 21.1 83% 24 76 0.0
04 07:15 SE 9 16.09 Fair CLR 23.2 21.1 88% 76 0.0
04 06:55 Calm 16.09 Fair CLR 22.6 21 25.8 22.3 91% 76 0.0
04 06:35 Calm 16.09 Fair CLR 22.5 21 91% 75.97 0.0
04 06:15 S 7 16.09 Fair CLR 22.8 21.1 90% 75.97 0.0
04 05:55 S 7 16.09 Fair CLR 23 21 89% 75.95 0.0
04 05:35 S 7 16.09 Fair CLR 23.2 21.1 88% 75.95 0.0
04 05:15 S 7 16.09 Fair CLR 23.6 21.1 86% 75.95 0.0
04 04:55 S 7 16.09 Fair CLR 23.5 21.1 86% 75.92 0.0
04 04:35 S 7 16.09 Fair CLR 23.6 21.2 86% 75.9 0.0
04 04:15 S 7 11.27 Fog/Mist CLR 23.6 21.2 86% 75.9 0.0
04 03:55 S 7 16.09 Fair CLR 23.6 21.3 87% 75.87 0.0
04 03:35 S 7 16.09 Fair CLR 23.8 21.3 86% 75.87 0.0
04 03:15 S 9 16.09 Fair CLR 24.1 21.3 84% 24 75.87 0.0
04 02:55 S 9 16.09 Fair CLR 24.6 21.3 82% 25 75.87 0.0
04 02:35 S 9 16.09 Fair CLR 25.3 21.4 79% 26 75.9 0.0
04 02:15 S 9 16.09 Fair CLR 25.5 21.4 78% 27 75.9 0.0
04 01:55 SE 11 16.09 Fair CLR 25.4 21.5 79% 27 75.9 0.0
04 01:35 SE 11 16.09 Fair CLR 25.6 21.5 78% 27 75.92 0.0
04 01:15 SE 9 16.09 Fair CLR 25.2 21.6 81% 26 75.92 0.0
04 00:55 SE 9 16.09 Fair CLR 25.1 21.8 31.4 24.9 82% 26 75.92 0.0
04 00:35 SE 9 16.09 Fair CLR 24.9 21.9 83% 26 75.95 0.0
04 00:15 Calm 16.09 Fair CLR 25 22 83% 26 75.92 0.0
03 23:55 Calm 16.09 Fair CLR 25.4 22 82% 27 75.92 0.0
03 23:35 SE 7 16.09 Fair CLR 25.6 22 81% 27 75.92 0.0
03 23:15 SE 7 16.09 Fair CLR 26 22 79% 28 75.92 0.0
03 22:55 Calm 16.09 Fair CLR 26.2 22.2 79% 28 75.92 0.0
03 22:35 Calm 16.09 Fair CLR 26.6 22.2 77% 29 75.92 0.0
03 22:15 Calm 16.09 Fair CLR 27.2 22.3 75% 30 75.92 0.0
03 21:55 SE 9 16.09 Fair CLR 27.4 22.3 74% 30 75.92 0.0
03 21:35 Calm 16.09 Fair CLR 27.7 22.5 73% 31 75.9 0.0
03 21:15 S 9 16.09 Fair CLR 28 22.6 73% 31 75.9 0.0
03 20:55 S 9 16.09 Fair CLR 28.1 22.8 73% 31 75.87 0.0
03 20:35 S 9 16.09 Fair CLR 28.8 22.8 70% 32 75.87 0.0
03 20:15 Calm 16.09 Fair CLR 29 23.2 71% 33 75.84 0.0
03 19:55 Calm 16.09 Fair CLR 29.6 22.9 67% 34 75.84 0.0
03 19:35 Calm 16.09 Fair CLR 30 23 66% 34 75.82 0.0
03 19:15 Calm 16.09 Fair CLR 30.8 23 63% 35 75.82 0.0
03 18:55 Calm 16.09 Fair CLR 31.5 23.2 34.8 31.4 61% 36 75.82 0.0
03 18:35 Calm 16.09 Fair CLR 32.4 23.1 58% 37 75.82 0.0
03 18:15 S 9 16.09 Fair CLR 32.9 23 56% 38 75.82 0.0
03 17:55 Calm 16.09 Fair CLR 33.3 23.1 55% 39 75.82 0.0
03 17:35 S 9 16.09 Fair CLR 33.7 23 54% 39 75.82 0.0
03 17:15 S 15 16.09 Fair CLR 33.7 22.9 53% 39 75.84 0.0
03 16:55 S 15 16.09 Fair CLR 34.1 23.2 53% 40 75.84 0.0
03 16:35 Calm 16.09 Fair CLR 34.2 23.9 55% 41 75.87 0.0
03 16:15 Calm 16.09 Fair CLR 34.2 23.2 53% 40 75.9 0.0
03 15:55 Calm 16.09 Fair CLR 34.2 23.1 52% 40 75.9 0.0
03 15:35 Calm 16.09 Fair CLR 34.3 22.9 51% 40 75.92 0.0
03 15:15 SW 7 16.09 Fair CLR 34.5 22.3 49% 39 75.95 0.0
03 14:55 Calm 16.09 Fair CLR 34.8 22.8 50% 40 75.95 0.0
03 14:35 Calm 16.09 Fair CLR 34.2 22.7 51% 39 75.95 0.0
03 14:15 S 15 16.09 Fair CLR 34.2 23.1 52% 40 75.95 0.0
03 13:55 SW 11 16.09 Fair CLR 34.2 22.4 50% 39 75.95 0.0
03 13:35 SW 13 16.09 Fair CLR 34.1 22.7 51% 39 75.97 0.0
03 13:15 S 17 16.09 Fair CLR 33.8 23 53% 39 75.97 0.0
03 12:55 SW 15 16.09 Fair CLR 33.7 22.8 33.8 23.4 53% 39 76 0.0
03 12:35 S 13 16.09 Fair CLR 33.2 22.6 54% 38 75.97 0.0
03 12:15 S 15 16.09 Fair CLR 33.3 23 55% 38 76 0.0
03 11:55 SW 7 16.09 Fair CLR 32.4 21.8 54% 36 76 0.0
03 11:35 Calm 16.09 Fair CLR 32.1 22.4 57% 36 76.02 0.0
03 11:15 Calm 16.09 Fair CLR 31.9 22.2 56% 36 76.02 0.0
03 10:55 SW 7 16.09 Fair CLR 31.5 22.1 57% 35 76.02 0.0
Date Time (cdt) Wind (kph) Vis. (km) Weather Sky Cond. Air Dwpt Max. Min. Relative Humidity Wind Chill (°C) Heat Index (°C) altimeter (cm) sea level (mb) 1 hr 3 hr 6 hr
6 hour
Temperature (ºC) Pressure Precipitation (cm)